Patuxent River, MD

5:12 PM EDT on May 25, 2018 (GMT -0400)
Patuxent River Naval Air Station

Weather History for KNHK - October, 2013

Change the Weather History Date:

Sunday, October 20, 2013

  Actual Average Record
Temperature  
Mean Temperature 53 °F -  
Max Temperature 63 °F 65 °F 83 °F (1984)
Min Temperature 43 °F 49 °F 32 °F (1981)
Degree Days  
Heating Degree Days 12    
Growing Degree Days 3 (Base 50)    
Moisture  
Dew Point 39 °F    
Average Humidity 60    
Maximum Humidity 93    
Minimum Humidity 34    
Precipitation  
Precipitation 0.00 in - - ()
Sea Level Pressure  
Sea Level Pressure 30.03 in    
Wind  
Wind Speed 10 mph (NW)    
Max Wind Speed 22 mph    
Max Gust Speed 31 mph    
Visibility 10 miles    
Events Rain    
Averages and records for this station are not official NWS values.
T = Trace of Precipitation, MM = Missing Value Source: NWS Daily Summary

Daily Weather History Graph

Daily Weather History Graph

Search for Another Location

Airport or City:

Astronomy

Oct. 20, 2013 Rise Set
Actual Time 7:19 AM EDT 6:20 PM EDT
Civil Twilight 6:52 AM EDT 6:47 PM EDT
Nautical Twilight 6:22 AM EDT 7:18 PM EDT
Astronomical Twilight 5:51 AM EDT 7:48 PM EDT
Moon 7:29 PM EDT (10/20) 8:53 AM EDT (10/20)
Length of Visible Light 11h 54m
Length of Day
11h 00m
Full, 97% of the Moon is Illuminated
Oct 20
Full
Oct 26
Last Quarter
Nov 3
New
Nov 10
First Quarter
Nov 17
Full

Hourly Weather History & Observations

Time (EDT) Temp. Windchill Dew Point Humidity Pressure Visibility Wind Dir Wind Speed Gust Speed Precip Events Conditions
12:52 AM 57.9 °F - 55.0 °F 90% 29.87 in - West 5.8 mph - N/A   Clear
1:52 AM 55.9 °F - 54.0 °F 93% 29.88 in - WNW 5.8 mph - N/A   Clear
2:52 AM 57.0 °F - 46.0 °F 67% 29.90 in - NW 19.6 mph 31.1 mph 0.00 in Rain Light Rain
3:52 AM 54.0 °F - 39.0 °F 57% 29.92 in - NW 21.9 mph 29.9 mph 0.00 in Rain Light Rain
4:52 AM 53.1 °F - 34.0 °F 48% 29.94 in - NNW 17.3 mph 28.8 mph 0.00 in   Clear
5:52 AM 52.0 °F - 34.0 °F 50% 29.97 in - NNW 18.4 mph 27.6 mph N/A   Clear
6:07 AM 51.8 °F - 35.6 °F 54% 29.97 in 10.0 mi NNW 18.4 mph 25.3 mph N/A   Clear
6:52 AM 50.0 °F - 34.0 °F 54% 29.99 in 10.0 mi NNW 16.1 mph 24.2 mph N/A   Partly Cloudy
7:52 AM 50.0 °F - 35.1 °F 57% 30.02 in 10.0 mi North 8.1 mph - N/A   Scattered Clouds
8:52 AM 53.1 °F - 35.1 °F 50% 30.05 in 10.0 mi NNW 12.7 mph 21.9 mph N/A   Partly Cloudy
9:52 AM 54.0 °F - 35.1 °F 49% 30.07 in 10.0 mi NNW 11.5 mph - N/A   Partly Cloudy
10:52 AM 57.9 °F - 35.1 °F 42% 30.07 in 10.0 mi NNW 6.9 mph - N/A   Partly Cloudy
11:52 AM 57.9 °F - 35.1 °F 42% 30.08 in 10.0 mi NW 8.1 mph - N/A   Partly Cloudy
12:52 PM 61.0 °F - 35.1 °F 38% 30.07 in 10.0 mi NW 8.1 mph - 0.00 in   Partly Cloudy
1:52 PM 62.1 °F - 33.1 °F 34% 30.05 in 10.0 mi NW 9.2 mph - N/A   Partly Cloudy
2:52 PM 63.0 °F - 34.0 °F 34% 30.04 in 10.0 mi NNW 5.8 mph - N/A   Scattered Clouds
3:52 PM 63.0 °F - 34.0 °F 34% 30.04 in 10.0 mi NNW 6.9 mph - N/A   Partly Cloudy
4:52 PM 60.1 °F - 39.0 °F 46% 30.04 in 10.0 mi ESE 4.6 mph - N/A   Clear
5:52 PM 57.0 °F - 41.0 °F 55% 30.06 in 10.0 mi SE 3.5 mph - N/A   Clear
6:52 PM 48.9 °F - 42.1 °F 77% 30.07 in 10.0 mi Calm Calm - N/A   Clear
7:52 PM 45.0 °F - 42.1 °F 90% 30.08 in 10.0 mi Calm Calm - N/A   Clear
8:52 PM 43.0 °F - 41.0 °F 93% 30.10 in 10.0 mi Calm Calm - N/A   Clear
9:52 PM 43.0 °F - 39.9 °F 89% 30.11 in 9.0 mi Calm Calm - N/A   Clear
10:52 PM 43.0 °F 39.5 °F 39.9 °F 89% 30.12 in 9.0 mi SSW 5.8 mph - N/A   Clear
11:52 PM 51.1 °F - 44.1 °F 77% 30.12 in 10.0 mi SSW 6.9 mph - N/A   Clear